Total_Precipitation_Accumulation
0.08 0.09 0.13 0.19 0.19 0.18 0.18 0.18 0.16 0.16 0.17 0.18 0.18 0.18 0.19 0.21 0.27 0.33 0.35 0.40 0.44 0.44 0.45 0.47 0.48 0.48 0.49 0.47 0.48 0.49 0.51 0.65 0.66 0.24 0.14 0.20 0.32 0.36 0.35 0.33 0.31 0.30 0.27
0.09 0.10 0.12 0.17 0.23 0.26 0.28 0.27 0.26 0.24 0.22 0.22 0.23 0.24 0.22 0.21 0.26 0.30 0.33 0.36 0.42 0.47 0.49 0.53 0.55 0.55 0.57 0.56 0.58 0.57 0.56 0.59 0.69 0.48 0.22 0.21 0.29 0.36 0.41 0.39 0.31 0.28 0.26
0.10 0.11 0.14 0.18 0.24 0.31 0.35 0.38 0.37 0.34 0.32 0.29 0.28 0.29 0.30 0.33 0.36 0.38 0.38 0.40 0.42 0.44 0.46 0.51 0.56 0.62 0.66 0.64 0.65 0.64 0.58 0.53 0.56 0.57 0.37 0.27 0.29 0.34 0.39 0.41 0.38 0.35 0.30
0.17 0.18 0.22 0.28 0.32 0.36 0.39 0.39 0.39 0.40 0.41 0.39 0.37 0.36 0.38 0.47 0.62 0.65 0.54 0.50 0.47 0.46 0.46 0.50 0.56 0.65 0.73 0.80 0.86 0.77 0.69 0.70 0.68 0.67 0.52 0.39 0.35 0.35 0.46 0.50 0.48 0.45 0.44
0.31 0.32 0.31 0.32 0.35 0.34 0.34 0.34 0.36 0.40 0.43 0.43 0.39 0.39 0.42 0.55 0.87 0.92 0.74 0.61 0.55 0.53 0.51 0.52 0.57 0.70 0.88 1.05 1.16 1.11 1.05 1.05 0.98 0.94 0.79 0.61 0.50 0.51 0.58 0.57 0.61 0.54 0.53
0.38 0.39 0.35 0.31 0.32 0.36 0.36 0.34 0.35 0.36 0.35 0.35 0.34 0.36 0.43 0.59 0.97 1.03 0.84 0.62 0.57 0.57 0.56 0.51 0.50 0.57 0.67 0.82 1.03 1.09 1.16 1.24 1.26 1.20 1.10 0.93 0.68 0.59 0.64 0.77 0.88 0.88 0.76
0.37 0.40 0.38 0.33 0.32 0.34 0.35 0.31 0.30 0.28 0.27 0.26 0.26 0.28 0.33 0.49 0.86 0.94 0.80 0.56 0.48 0.49 0.49 0.44 0.43 0.43 0.47 0.47 0.58 0.66 0.74 0.90 1.10 1.23 1.30 1.06 0.83 0.73 0.87 1.05 1.08 1.06 0.86
0.32 0.32 0.32 0.25 0.22 0.24 0.27 0.25 0.23 0.22 0.23 0.23 0.22 0.22 0.21 0.28 0.63 0.86 0.72 0.45 0.40 0.41 0.41 0.43 0.44 0.42 0.42 0.48 0.56 0.58 0.55 0.58 0.76 0.98 1.12 1.01 0.93 0.93 1.08 1.32 1.45 1.50 1.20
0.22 0.20 0.21 0.17 0.13 0.15 0.18 0.18 0.17 0.17 0.17 0.18 0.21 0.21 0.19 0.20 0.42 0.78 0.77 0.42 0.40 0.37 0.39 0.50 0.55 0.50 0.51 0.63 0.75 0.73 0.58 0.49 0.54 0.80 1.05 1.10 1.14 1.32 1.51 1.83 2.08 2.14 1.86
0.13 0.12 0.16 0.13 0.09 0.09 0.11 0.11 0.12 0.13 0.15 0.16 0.18 0.22 0.21 0.18 0.32 0.69 0.91 0.54 0.46 0.39 0.39 0.51 0.73 0.70 0.68 0.72 0.78 0.80 0.75 0.54 0.48 0.52 0.61 0.70 0.76 0.84 1.13 1.49 1.72 1.90 1.89
0.08 0.09 0.14 0.14 0.08 0.06 0.08 0.09 0.11 0.13 0.16 0.17 0.17 0.19 0.22 0.20 0.24 0.51 0.94 0.83 0.62 0.52 0.49 0.54 0.67 0.71 0.70 0.71 0.76 0.76 0.76 0.71 0.69 0.67 0.61 0.55 0.57 0.68 0.83 1.09 1.32 1.53 1.71
0.07 0.09 0.12 0.15 0.10 0.07 0.08 0.10 0.11 0.13 0.17 0.18 0.19 0.20 0.20 0.20 0.24 0.40 0.70 0.87 0.78 0.58 0.53 0.46 0.53 0.60 0.66 0.68 0.67 0.69 0.72 0.75 0.71 0.65 0.55 0.47 0.47 0.54 0.65 0.82 1.06 1.20 1.30
0.06 0.09 0.10 0.13 0.12 0.11 0.11 0.12 0.12 0.13 0.18 0.23 0.23 0.24 0.21 0.20 0.25 0.39 0.49 0.54 0.61 0.55 0.56 0.70 0.64 0.58 0.55 0.50 0.46 0.52 0.55 0.53 0.58 0.56 0.47 0.37 0.34 0.40 0.50 0.65 0.81 0.99 1.11
0.06 0.09 0.11 0.12 0.14 0.12 0.11 0.12 0.13 0.15 0.28 0.38 0.36 0.32 0.26 0.24 0.32 0.51 0.54 0.46 0.50 0.53 0.52 0.61 0.59 0.49 0.41 0.36 0.34 0.34 0.34 0.40 0.48 0.52 0.43 0.35 0.32 0.37 0.46 0.57 0.74 0.88 1.08
0.08 0.10 0.12 0.13 0.13 0.15 0.14 0.14 0.17 0.18 0.36 0.58 0.55 0.55 0.52 0.49 0.58 0.84 0.82 0.71 0.71 0.71 0.72 0.71 0.60 0.47 0.42 0.36 0.32 0.28 0.28 0.35 0.43 0.44 0.44 0.42 0.40 0.41 0.44 0.49 0.67 0.84 1.02
0.11 0.12 0.14 0.16 0.16 0.18 0.19 0.20 0.20 0.21 0.28 0.32 0.37 0.48 0.47 0.59 0.71 0.70 0.66 0.65 0.68 0.71 0.75 0.72 0.54 0.43 0.40 0.37 0.37 0.34 0.30 0.32 0.34 0.38 0.43 0.45 0.46 0.47 0.46 0.48 0.62 0.79 0.88
0.15 0.17 0.19 0.20 0.21 0.23 0.26 0.27 0.25 0.22 0.21 0.21 0.23 0.31 0.40 0.53 0.58 0.57 0.60 0.57 0.55 0.57 0.61 0.51 0.41 0.37 0.36 0.35 0.35 0.35 0.32 0.27 0.31 0.38 0.43 0.44 0.48 0.51 0.51 0.53 0.58 0.69 0.77
0.19 0.20 0.22 0.23 0.25 0.26 0.28 0.29 0.28 0.28 0.26 0.22 0.21 0.25 0.34 0.42 0.48 0.51 0.55 0.55 0.49 0.43 0.42 0.41 0.38 0.35 0.35 0.35 0.33 0.33 0.32 0.31 0.33 0.37 0.38 0.39 0.44 0.51 0.52 0.49 0.52 0.65 0.74
0.19 0.20 0.22 0.26 0.28 0.29 0.32 0.32 0.30 0.29 0.28 0.26 0.26 0.29 0.34 0.38 0.40 0.40 0.41 0.42 0.41 0.37 0.35 0.35 0.35 0.36 0.37 0.35 0.33 0.31 0.32 0.32 0.31 0.33 0.34 0.34 0.38 0.49 0.50 0.44 0.48 0.59 0.80
0.17 0.21 0.25 0.27 0.30 0.31 0.33 0.35 0.35 0.35 0.34 0.32 0.33 0.35 0.42 0.48 0.45 0.39 0.35 0.35 0.36 0.35 0.35 0.36 0.33 0.34 0.36 0.37 0.37 0.35 0.35 0.32 0.30 0.32 0.34 0.35 0.38 0.47 0.50 0.47 0.52 0.63 0.73
0.21 0.23 0.27 0.28 0.29 0.32 0.36 0.40 0.41 0.43 0.44 0.40 0.34 0.35 0.58 0.67 0.53 0.39 0.36 0.36 0.38 0.40 0.39 0.37 0.34 0.32 0.34 0.36 0.38 0.37 0.35 0.33 0.31 0.36 0.39 0.38 0.41 0.47 0.47 0.51 0.56 0.62 0.71
0.26 0.28 0.29 0.30 0.31 0.34 0.40 0.42 0.44 0.46 0.44 0.41 0.35 0.34 0.41 0.40 0.36 0.34 0.34 0.34 0.36 0.39 0.40 0.44 0.41 0.34 0.35 0.40 0.42 0.43 0.39 0.34 0.33 0.39 0.44 0.42 0.44 0.48 0.51 0.56 0.60 0.66 0.74
0.31 0.33 0.32 0.30 0.31 0.37 0.40 0.38 0.41 0.44 0.43 0.40 0.38 0.37 0.36 0.35 0.35 0.36 0.37 0.35 0.37 0.40 0.41 0.45 0.46 0.38 0.33 0.37 0.42 0.49 0.51 0.42 0.38 0.47 0.57 0.56 0.52 0.53 0.56 0.60 0.61 0.68 0.73
0.37 0.37 0.37 0.35 0.34 0.37 0.39 0.39 0.41 0.41 0.43 0.42 0.40 0.39 0.38 0.36 0.34 0.33 0.35 0.36 0.38 0.39 0.41 0.46 0.47 0.43 0.38 0.40 0.42 0.44 0.46 0.52 0.66 0.75 0.72 0.73 0.66 0.58 0.60 0.65 0.64 0.65 0.71
0.37 0.38 0.39 0.40 0.40 0.41 0.43 0.41 0.40 0.42 0.43 0.43 0.43 0.41 0.38 0.36 0.34 0.33 0.34 0.38 0.42 0.42 0.40 0.42 0.45 0.45 0.41 0.39 0.38 0.40 0.45 0.60 0.79 1.05 1.21 1.16 0.93 0.73 0.70 0.71 0.69 0.69 0.74
0.36 0.35 0.36 0.39 0.42 0.46 0.49 0.49 0.47 0.47 0.49 0.47 0.44 0.44 0.43 0.42 0.39 0.38 0.40 0.47 0.53 0.51 0.46 0.44 0.42 0.42 0.42 0.41 0.39 0.41 0.53 0.73 0.91 1.12 1.49 1.63 1.29 0.93 0.80 0.82 0.77 0.77 0.81